TimeCDT,TemperatureF,Dew PointF,Humidity,Sea Level PressureIn,VisibilityMPH,Wind Direction,Wind SpeedMPH,Gust SpeedMPH,PrecipitationIn,Events,Conditions,WindDirDegrees,DateUTC
12:53 AM,72.0,62.1,71,29.66,10.0,South,11.5,18.4,N/A,,Clear,180,2012-10-25 05:53:00
1:53 AM,72.0,62.1,71,29.65,10.0,South,10.4,19.6,N/A,,Clear,170,2012-10-25 06:53:00
2:53 AM,72.0,62.1,71,29.65,10.0,South,12.7,20.7,N/A,,Clear,180,2012-10-25 07:53:00
3:53 AM,73.0,61.0,66,29.63,10.0,South,13.8,26.5,N/A,,Clear,180,2012-10-25 08:53:00
4:53 AM,72.0,61.0,68,29.60,10.0,South,13.8,25.3,N/A,,Clear,180,2012-10-25 09:53:00
5:53 AM,73.0,61.0,66,29.67,10.0,South,10.4,21.9,N/A,,Overcast,190,2012-10-25 10:53:00
6:53 AM,59.0,51.8,77,29.78,10.0,NNW,19.6,35.7,N/A,,Overcast,340,2012-10-25 11:53:00
6:56 AM,57.2,50.0,77,29.78,10.0,NNW,20.7,35.7,N/A,,Overcast,330,2012-10-25 11:56:00
7:31 AM,51.8,44.6,76,29.82,10.0,NNW,21.9,33.4,0.00,,Overcast,340,2012-10-25 12:31:00
7:53 AM,51.1,44.1,77,29.83,10.0,NNW,20.7,34.5,0.00,,Overcast,340,2012-10-25 12:53:00
8:20 AM,48.2,42.8,82,29.89,10.0,NNW,24.2,36.8,N/A,,Overcast,340,2012-10-25 13:20:00
8:37 AM,48.2,41.0,76,29.91,10.0,NNW,19.6,33.4,N/A,,Overcast,340,2012-10-25 13:37:00
8:53 AM,46.9,42.1,83,29.92,10.0,NNW,19.6,31.1,N/A,,Overcast,330,2012-10-25 13:53:00
9:27 AM,44.6,41.0,87,29.97,10.0,NNW,21.9,27.6,0.00,,Overcast,340,2012-10-25 14:27:00
9:53 AM,46.0,39.9,79,29.97,10.0,NNW,16.1,23.0,0.00,,Overcast,330,2012-10-25 14:53:00
10:53 AM,48.0,37.9,68,30.02,10.0,North,24.2,29.9,N/A,,Overcast,350,2012-10-25 15:53:00
11:53 AM,48.9,37.0,64,30.05,10.0,NNW,20.7,33.4,N/A,,Overcast,330,2012-10-25 16:53:00
12:53 PM,48.9,36.0,61,30.07,10.0,NNW,20.7,32.2,N/A,,Overcast,330,2012-10-25 17:53:00
1:53 PM,50.0,35.1,57,30.09,10.0,North,24.2,31.1,N/A,,Overcast,350,2012-10-25 18:53:00
2:53 PM,51.1,35.1,54,30.09,10.0,North,20.7,28.8,N/A,,Overcast,10,2012-10-25 19:53:00
3:11 PM,51.8,35.6,54,30.11,10.0,North,23.0,28.8,N/A,,Overcast,10,2012-10-25 20:11:00
3:53 PM,51.1,35.1,54,30.10,10.0,North,18.4,28.8,N/A,,Mostly Cloudy,360,2012-10-25 20:53:00
4:53 PM,50.0,35.1,57,30.12,10.0,NNE,17.3,24.2,N/A,,Overcast,20,2012-10-25 21:53:00
5:53 PM,50.0,34.0,54,30.14,10.0,NNE,16.1,26.5,N/A,,Overcast,20,2012-10-25 22:53:00
6:53 PM,48.9,34.0,56,30.17,10.0,NNE,13.8,-,N/A,,Mostly Cloudy,20,2012-10-25 23:53:00
7:53 PM,45.0,33.1,63,30.20,10.0,North,8.1,-,N/A,,Clear,10,2012-10-26 00:53:00
8:53 PM,42.1,32.0,67,30.22,10.0,North,5.8,-,N/A,,Clear,10,2012-10-26 01:53:00
9:53 PM,41.0,32.0,70,30.25,10.0,North,3.5,-,N/A,,Clear,10,2012-10-26 02:53:00
10:53 PM,39.0,30.9,73,30.27,10.0,North,6.9,-,N/A,,Clear,10,2012-10-26 03:53:00
11:53 PM,42.8,32.0,66,30.28,10.0,NNE,12.7,-,N/A,,Clear,20,2012-10-26 04:53:00